Tracking 31023 objects as of 19-Jul-2025
HD Live streaming from Space Station
objects crossing your sky now

STARLINK-3131

Track STARLINK-3131 now!
10-day predictions
STARLINK-3131 is classified as:


NORAD ID: 49427
Int'l Code: 2021-104V
Perigee: 546.0 km
Apogee: 547.8 km
Inclination: 53.2 °
Period: 95.4 minutes
Semi major axis: 6917 km
RCS: Unknown
Launch date: November 13, 2021
Source: United States (US)
Launch site: AIR FORCE EASTERN TEST RANGE (AFETR)
Your satellite tracking list
Your tracking list is empty




NASA's NSSDC Master Catalog

Two Line Element Set (TLE):
1 49427U 21104V   25199.71247472 -.00000449  00000-0 -10100-4 0  9999
2 49427  53.2176 199.4990 0001339  88.4177 271.6968 15.08841127203319
Source of the keplerian elements: AFSPC